Voltar ao catálogo

COSMOS 886 DEB

AtivoLEO
NORAD 9962·DEBRIS·🇷🇺 Russia

Lançado Dec 27, 1976 de Baikonur Cosmodrome

Loading…

Próximas Passagens (próximas 24 horas)

TLE

AtualizadoSource: Space-Track

Época: Sep 14, 2026, 14:46 UTC

1 09962U 76126BC  26257.61577323  .00003545  00000-0  86772-3 0  9994
2 09962  65.7623 122.4119 0541962 140.1036 224.1215 13.90647123408475

Acompanhe COSMOS 886 DEB em tempo real com AllMySat

Download on the App Store